| time (UTC) | temp F | wind direction | speed MPH | gust MPH | rain 1hr in | rain 24hr in | rain mn in | humidity % | barometer mb |
| 20260509194005 | 69 | 225 | 6.0 | 12.0 | 0.00 | 0.47 | 0.23 | 58 | 1004.2 |
| 20260509193504 | 69 | 227 | 5.0 | 12.0 | 0.00 | 0.47 | 0.23 | 58 | 1004.2 |
| 20260509192503 | 68 | 230 | 4.0 | 11.0 | 0.00 | 0.47 | 0.23 | 59 | 1004.5 |
| 20260509192005 | 68 | 226 | 4.0 | 11.0 | 0.00 | 0.47 | 0.23 | 58 | 1004.7 |
| 20260509191503 | 68 | 227 | 4.0 | 13.0 | 0.00 | 0.47 | 0.23 | 58 | 1004.7 |
| 20260509191004 | 68 | 228 | 6.0 | 17.0 | 0.00 | 0.47 | 0.23 | 57 | 1004.8 |
| 20260509190503 | 69 | 235 | 6.0 | 17.0 | 0.00 | 0.47 | 0.23 | 57 | 1004.8 |
| 20260509190005 | 69 | 237 | 4.0 | 13.0 | 0.00 | 0.47 | 0.23 | 58 | 1004.8 |
| 20260509185503 | 69 | 236 | 4.0 | 12.0 | 0.00 | 0.47 | 0.23 | 59 | 1004.8 |
| 20260509185004 | 68 | 239 | 5.0 | 13.0 | 0.00 | 0.47 | 0.23 | 58 | 1004.9 |
| 20260509184504 | 68 | 239 | 4.0 | 13.0 | 0.00 | 0.47 | 0.23 | 59 | 1004.9 |
| 20260509183504 | 68 | 219 | 5.0 | 14.0 | 0.00 | 0.47 | 0.23 | 58 | 1004.8 |
| 20260509182504 | 69 | 224 | 5.0 | 14.0 | 0.00 | 0.47 | 0.23 | 60 | 1004.9 |
| 20260509182004 | 69 | 220 | 5.0 | 14.0 | 0.00 | 0.47 | 0.23 | 58 | 1004.9 |
| 20260509181504 | 70 | 218 | 5.0 | 14.0 | 0.00 | 0.47 | 0.23 | 58 | 1005.0 |
| 20260509181004 | 70 | 215 | 4.0 | 10.0 | 0.00 | 0.47 | 0.23 | 58 | 1005.0 |
| 20260509180504 | 70 | 214 | 4.0 | 8.0 | 0.00 | 0.47 | 0.23 | 61 | 1004.8 |
| 20260509180004 | 69 | 205 | 4.0 | 10.0 | 0.00 | 0.47 | 0.23 | 62 | 1005.0 |
| 20260509175504 | 69 | 204 | 4.0 | 10.0 | 0.00 | 0.48 | 0.23 | 59 | 1005.0 |
| 20260509175004 | 70 | 226 | 5.0 | 11.0 | 0.00 | 0.48 | 0.23 | 59 | 1005.0 |
| 20260509174504 | 70 | 229 | 5.0 | 12.0 | 0.00 | 0.48 | 0.23 | 60 | 1005.1 |
| 20260509174004 | 69 | 224 | 4.0 | 12.0 | 0.00 | 0.48 | 0.23 | 59 | 1005.1 |
| 20260509173504 | 70 | 231 | 4.0 | 10.0 | 0.00 | 0.48 | 0.23 | 59 | 1005.0 |
| 20260509173005 | 69 | 223 | 4.0 | 10.0 | 0.00 | 0.49 | 0.23 | 61 | 1005.0 |
| 20260509172504 | 69 | 201 | 4.0 | 10.0 | 0.00 | 0.49 | 0.23 | 60 | 1005.0 |
| 20260509172005 | 68 | 202 | 3.0 | 10.0 | 0.00 | 0.49 | 0.23 | 62 | 1005.0 |
| 20260509170504 | 67 | 219 | 4.0 | 9.0 | 0.00 | 0.49 | 0.23 | 63 | 1004.9 |
| 20260509170004 | 67 | 225 | 3.0 | 8.0 | 0.00 | 0.49 | 0.23 | 63 | 1004.9 |
| 20260509165503 | 66 | 233 | 3.0 | 8.0 | 0.00 | 0.49 | 0.23 | 66 | 1005.0 |
| 20260509165004 | 66 | 228 | 4.0 | 10.0 | 0.00 | 0.49 | 0.23 | 67 | 1005.1 |
| 20260509164005 | 65 | 234 | 3.0 | 8.0 | 0.00 | 0.49 | 0.23 | 66 | 1005.4 |
| 20260509163504 | 65 | 251 | 3.0 | 8.0 | 0.00 | 0.49 | 0.23 | 68 | 1005.5 |
| 20260509163004 | 65 | 235 | 4.0 | 10.0 | 0.00 | 0.49 | 0.23 | 68 | 1005.6 |
| 20260509162504 | 65 | 229 | 4.0 | 10.0 | 0.00 | 0.49 | 0.23 | 68 | 1005.6 |
| 20260509162005 | 64 | 226 | 4.0 | 10.0 | 0.00 | 0.49 | 0.23 | 69 | 1005.5 |
| 20260509161005 | 64 | 220 | 4.0 | 9.0 | 0.00 | 0.49 | 0.23 | 72 | 1005.4 |
| 20260509160504 | 63 | 219 | 4.0 | 8.0 | 0.00 | 0.49 | 0.23 | 76 | 1005.5 |
| 20260509160005 | 62 | 233 | 4.0 | 11.0 | 0.00 | 0.49 | 0.23 | 78 | 1005.5 |
| 20260509155504 | 61 | 252 | 3.0 | 11.0 | 0.00 | 0.49 | 0.23 | 82 | 1005.5 |
| 20260509155004 | 60 | 246 | 4.0 | 9.0 | 0.00 | 0.49 | 0.23 | 86 | 1005.5 |
| 20260509154504 | 60 | 247 | 3.0 | 9.0 | 0.00 | 0.49 | 0.23 | 88 | 1005.6 |
| 20260509154005 | 59 | 249 | 3.0 | 9.0 | 0.00 | 0.49 | 0.23 | 90 | 1005.6 |
| 20260509153504 | 59 | 266 | 3.0 | 9.0 | 0.00 | 0.49 | 0.23 | 91 | 1005.4 |
| 20260509153004 | 58 | 266 | 3.0 | 9.0 | 0.00 | 0.49 | 0.23 | 92 | 1005.4 |
| 20260509152504 | 58 | 230 | 3.0 | 8.0 | 0.00 | 0.49 | 0.23 | 93 | 1005.5 |
| 20260509152004 | 58 | 231 | 2.0 | 8.0 | 0.00 | 0.49 | 0.23 | 94 | 1005.4 |
| 20260509145504 | 57 | 234 | 3.0 | 9.0 | 0.00 | 0.49 | 0.23 | 94 | 1005.4 |
| 20260509145004 | 57 | 234 | 3.0 | 6.0 | 0.00 | 0.49 | 0.23 | 94 | 1005.4 |
| 20260509144504 | 57 | 231 | 2.0 | 6.0 | 0.00 | 0.49 | 0.23 | 94 | 1005.4 |
| 20260509144005 | 56 | 225 | 2.0 | 5.0 | 0.00 | 0.49 | 0.23 | 94 | 1005.5 |
| 20260509143504 | 56 | 236 | 3.0 | 7.0 | 0.00 | 0.49 | 0.23 | 94 | 1005.4 |
| 20260509143005 | 55 | 245 | 2.0 | 7.0 | 0.00 | 0.49 | 0.23 | 94 | 1005.4 |
| 20260509142504 | 55 | 244 | 0.0 | 7.0 | 0.00 | 0.49 | 0.23 | 94 | 1005.4 |
| 20260509142004 | 55 | 233 | 0.0 | 3.0 | 0.00 | 0.49 | 0.23 | 94 | 1005.5 |
| 20260509141504 | 54 | 227 | 1.0 | 4.0 | 0.00 | 0.49 | 0.23 | 94 | 1005.5 |
| 20260509141004 | 54 | 221 | 1.0 | 4.0 | 0.00 | 0.49 | 0.23 | 94 | 1005.5 |
| 20260509140504 | 54 | 209 | 1.0 | 3.0 | 0.00 | 0.49 | 0.23 | 94 | 1005.5 |
| 20260509140005 | 54 | 209 | 1.0 | 3.0 | 0.00 | 0.49 | 0.23 | 94 | 1005.3 |
| 20260509135503 | 54 | 208 | 2.0 | 5.0 | 0.00 | 0.49 | 0.23 | 94 | 1005.5 |
| 20260509135004 | 54 | 219 | 2.0 | 5.0 | 0.00 | 0.49 | 0.23 | 94 | 1005.5 |
| 20260509134504 | 54 | 229 | 2.0 | 4.0 | 0.00 | 0.49 | 0.23 | 94 | 1005.4 |
| 20260509134004 | 54 | 226 | 2.0 | 4.0 | 0.00 | 0.49 | 0.23 | 94 | 1005.5 |
| 20260509133503 | 54 | 224 | 2.0 | 5.0 | 0.00 | 0.49 | 0.23 | 94 | 1005.5 |
| 20260509133005 | 54 | 223 | 1.0 | 5.0 | 0.00 | 0.49 | 0.23 | 94 | 1005.5 |
| 20260509132503 | 54 | 219 | 1.0 | 4.0 | 0.00 | 0.49 | 0.23 | 94 | 1005.5 |
| 20260509132005 | 53 | 219 | 1.0 | 4.0 | 0.00 | 0.49 | 0.23 | 94 | 1005.6 |
| 20260509131503 | 53 | 0 | 0.0 | 0.0 | 0.00 | 0.49 | 0.23 | 94 | 1005.6 |
| 20260509131005 | 53 | 220 | 0.0 | 2.0 | 0.00 | 0.49 | 0.23 | 94 | 1005.6 |
| 20260509130504 | 53 | 219 | 1.0 | 3.0 | 0.00 | 0.49 | 0.23 | 94 | 1005.7 |
| 20260509130004 | 53 | 219 | 1.0 | 4.0 | 0.00 | 0.49 | 0.23 | 94 | 1005.7 |
| 20260509125504 | 53 | 216 | 1.0 | 4.0 | 0.00 | 0.49 | 0.23 | 94 | 1005.7 |
| 20260509125005 | 53 | 214 | 1.0 | 4.0 | 0.00 | 0.49 | 0.23 | 94 | 1005.8 |
| 20260509124504 | 53 | 215 | 0.0 | 4.0 | 0.00 | 0.49 | 0.23 | 94 | 1005.9 |
| 20260509124004 | 53 | 0 | 0.0 | 0.0 | 0.00 | 0.49 | 0.23 | 94 | 1005.9 |
| 20260509123504 | 53 | 0 | 0.0 | 0.0 | 0.00 | 0.49 | 0.23 | 94 | 1005.9 |
| 20260509123005 | 53 | 215 | 0.0 | 2.0 | 0.00 | 0.49 | 0.23 | 94 | 1005.9 |
| 20260509122504 | 53 | 215 | 1.0 | 3.0 | 0.00 | 0.49 | 0.23 | 94 | 1005.9 |
| 20260509122005 | 53 | 214 | 1.0 | 3.0 | 0.00 | 0.49 | 0.23 | 94 | 1005.9 |
| 20260509120504 | 52 | 213 | 0.0 | 1.0 | 0.00 | 0.49 | 0.23 | 94 | 1005.9 |
| 20260509120005 | 52 | 213 | 0.0 | 3.0 | 0.00 | 0.49 | 0.23 | 94 | 1005.9 |
| 20260509115503 | 52 | 213 | 0.0 | 3.0 | 0.00 | 0.49 | 0.23 | 94 | 1005.9 |
| 20260509115005 | 52 | 0 | 0.0 | 0.0 | 0.00 | 0.49 | 0.23 | 94 | 1006.0 |
| 20260509114503 | 52 | 211 | 0.0 | 1.0 | 0.00 | 0.49 | 0.23 | 94 | 1006.0 |
| 20260509114005 | 52 | 211 | 0.0 | 1.0 | 0.00 | 0.49 | 0.23 | 94 | 1006.0 |
| 20260509113504 | 52 | 211 | 0.0 | 3.0 | 0.00 | 0.49 | 0.23 | 94 | 1005.9 |
| 20260509112503 | 52 | 211 | 0.0 | 3.0 | 0.00 | 0.49 | 0.23 | 94 | 1006.0 |
| 20260509112004 | 52 | 211 | 0.0 | 2.0 | 0.00 | 0.49 | 0.23 | 94 | 1006.0 |
| 20260509111504 | 52 | 211 | 0.0 | 2.0 | 0.00 | 0.49 | 0.23 | 94 | 1005.9 |
| 20260509111004 | 52 | 212 | 0.0 | 2.0 | 0.00 | 0.49 | 0.23 | 94 | 1005.9 |
| 20260509110503 | 52 | 211 | 0.0 | 2.0 | 0.00 | 0.49 | 0.23 | 94 | 1005.8 |
| 20260509105504 | 52 | 211 | 0.0 | 3.0 | 0.00 | 0.49 | 0.23 | 94 | 1005.6 |
| 20260509105004 | 52 | 211 | 0.0 | 3.0 | 0.00 | 0.49 | 0.23 | 94 | 1005.7 |
| 20260509104503 | 52 | 0 | 0.0 | 0.0 | 0.00 | 0.49 | 0.23 | 94 | 1005.7 |
| 20260509103503 | 52 | 206 | 1.0 | 3.0 | 0.00 | 0.50 | 0.23 | 94 | 1005.6 |
| 20260509103005 | 52 | 206 | 1.0 | 3.0 | 0.00 | 0.50 | 0.23 | 94 | 1005.6 |
| 20260509102503 | 52 | 205 | 1.0 | 3.0 | 0.00 | 0.52 | 0.23 | 94 | 1005.5 |
| 20260509101503 | 52 | 203 | 0.0 | 2.0 | 0.00 | 0.52 | 0.23 | 94 | 1005.6 |
| 20260509101005 | 52 | 204 | 0.0 | 2.0 | 0.00 | 0.52 | 0.23 | 94 | 1005.6 |
| 20260509100503 | 52 | 204 | 1.0 | 3.0 | 0.00 | 0.52 | 0.23 | 94 | 1005.6 |
| 20260509100005 | 52 | 204 | 1.0 | 3.0 | 0.00 | 0.52 | 0.23 | 94 | 1005.7 |
| 20260509095504 | 52 | 204 | 1.0 | 3.0 | 0.00 | 0.52 | 0.23 | 94 | 1005.7 |
| 20260509095004 | 52 | 204 | 1.0 | 4.0 | 0.00 | 0.52 | 0.23 | 94 | 1005.7 |
| 20260509094503 | 52 | 204 | 1.0 | 4.0 | 0.01 | 0.52 | 0.23 | 94 | 1005.8 |
| 20260509094004 | 52 | 204 | 1.0 | 3.0 | 0.01 | 0.52 | 0.23 | 94 | 1005.8 |
| 20260509092504 | 51 | 0 | 0.0 | 0.0 | 0.01 | 0.52 | 0.23 | 93 | 1005.9 |
| 20260509092004 | 51 | 0 | 0.0 | 0.0 | 0.01 | 0.52 | 0.23 | 93 | 1006.0 |
| 20260509091503 | 51 | 204 | 1.0 | 3.0 | 0.01 | 0.52 | 0.23 | 93 | 1006.0 |
| 20260509091006 | 51 | 204 | 1.0 | 3.0 | 0.01 | 0.52 | 0.23 | 93 | 1006.0 |
| 20260509090504 | 51 | 204 | 1.0 | 3.0 | 0.02 | 0.52 | 0.23 | 93 | 1006.1 |
| 20260509085005 | 51 | 0 | 0.0 | 0.0 | 0.04 | 0.52 | 0.23 | 93 | 1006.2 |
| 20260509084503 | 51 | 0 | 0.0 | 0.0 | 0.03 | 0.51 | 0.22 | 93 | 1006.2 |
| 20260509084004 | 51 | 0 | 0.0 | 0.0 | 0.04 | 0.51 | 0.22 | 93 | 1006.3 |
| 20260509083504 | 51 | 0 | 0.0 | 0.0 | 0.04 | 0.51 | 0.22 | 93 | 1006.4 |
| 20260509083004 | 51 | 211 | 0.0 | 2.0 | 0.05 | 0.51 | 0.22 | 94 | 1006.4 |
| 20260509082503 | 51 | 211 | 0.0 | 2.0 | 0.05 | 0.51 | 0.22 | 94 | 1006.5 |
| 20260509082005 | 51 | 211 | 0.0 | 2.0 | 0.05 | 0.51 | 0.22 | 94 | 1006.4 |
| 20260509081504 | 51 | 211 | 0.0 | 3.0 | 0.05 | 0.51 | 0.22 | 94 | 1006.4 |
| 20260509081005 | 51 | 212 | 1.0 | 3.0 | 0.05 | 0.50 | 0.21 | 93 | 1006.5 |
| 20260509080504 | 51 | 212 | 1.0 | 4.0 | 0.05 | 0.50 | 0.21 | 94 | 1006.5 |
| 20260509080004 | 51 | 212 | 2.0 | 4.0 | 0.05 | 0.50 | 0.21 | 93 | 1006.6 |
| 20260509075504 | 51 | 212 | 1.0 | 4.0 | 0.04 | 0.49 | 0.20 | 93 | 1006.6 |
| 20260509075004 | 51 | 211 | 1.0 | 3.0 | 0.04 | 0.48 | 0.19 | 93 | 1006.5 |
| 20260509074504 | 51 | 211 | 1.0 | 3.0 | 0.04 | 0.48 | 0.19 | 93 | 1006.5 |
| 20260509074004 | 51 | 209 | 1.0 | 3.0 | 0.04 | 0.47 | 0.18 | 93 | 1006.6 |
| 20260509073504 | 51 | 207 | 1.0 | 3.0 | 0.05 | 0.47 | 0.18 | 93 | 1006.6 |
| 20260509073004 | 51 | 0 | 0.0 | 0.0 | 0.04 | 0.46 | 0.17 | 93 | 1006.5 |
| 20260509072504 | 51 | 0 | 0.0 | 0.0 | 0.05 | 0.46 | 0.17 | 93 | 1006.5 |
| 20260509072005 | 51 | 0 | 0.0 | 0.0 | 0.05 | 0.46 | 0.17 | 93 | 1006.5 |
| 20260509071504 | 51 | 0 | 0.0 | 0.0 | 0.05 | 0.46 | 0.17 | 93 | 1006.6 |
| 20260509071004 | 51 | 0 | 0.0 | 0.0 | 0.04 | 0.45 | 0.16 | 93 | 1006.6 |
| 20260509070504 | 51 | 0 | 0.0 | 0.0 | 0.04 | 0.46 | 0.16 | 93 | 1006.7 |
| 20260509065503 | 51 | 0 | 0.0 | 0.0 | 0.04 | 0.45 | 0.15 | 93 | 1006.8 |
| 20260509065005 | 51 | 0 | 0.0 | 0.0 | 0.05 | 0.45 | 0.15 | 93 | 1006.8 |
| 20260509064504 | 51 | 0 | 0.0 | 0.0 | 0.06 | 0.45 | 0.15 | 93 | 1006.8 |
| 20260509064005 | 51 | 0 | 0.0 | 0.0 | 0.06 | 0.44 | 0.14 | 93 | 1006.8 |
| 20260509063503 | 51 | 0 | 0.0 | 0.0 | 0.06 | 0.43 | 0.13 | 93 | 1006.8 |
| 20260509063005 | 51 | 0 | 0.0 | 0.0 | 0.07 | 0.43 | 0.13 | 93 | 1006.8 |
| 20260509062504 | 51 | 0 | 0.0 | 0.0 | 0.07 | 0.42 | 0.12 | 93 | 1006.9 |
| 20260509062005 | 51 | 0 | 0.0 | 0.0 | 0.07 | 0.42 | 0.12 | 93 | 1006.9 |
| 20260509061504 | 51 | 0 | 0.0 | 0.0 | 0.08 | 0.42 | 0.12 | 93 | 1006.9 |
| 20260509061005 | 51 | 196 | 0.0 | 4.0 | 0.09 | 0.42 | 0.12 | 93 | 1007.1 |
| 20260509060503 | 51 | 191 | 1.0 | 4.0 | 0.09 | 0.42 | 0.12 | 93 | 1007.2 |
| 20260509060005 | 51 | 184 | 1.0 | 4.0 | 0.10 | 0.42 | 0.12 | 93 | 1007.3 |
| 20260509055504 | 51 | 173 | 1.0 | 3.0 | 0.10 | 0.41 | 0.11 | 93 | 1007.3 |
| 20260509054503 | 51 | 172 | 1.0 | 5.0 | 0.09 | 0.39 | 0.09 | 93 | 1007.5 |
| 20260509054004 | 51 | 172 | 1.0 | 5.0 | 0.08 | 0.38 | 0.08 | 93 | 1007.6 |
| 20260509053504 | 51 | 173 | 0.0 | 2.0 | 0.07 | 0.37 | 0.07 | 93 | 1007.6 |
| 20260509053004 | 51 | 167 | 1.0 | 4.0 | 0.06 | 0.36 | 0.06 | 93 | 1007.7 |
| 20260509052005 | 51 | 161 | 0.0 | 5.0 | 0.04 | 0.34 | 0.04 | 93 | 1007.8 |
| 20260509051504 | 51 | 0 | 0.0 | 0.0 | 0.04 | 0.34 | 0.04 | 93 | 1007.7 |
| 20260509051005 | 51 | 0 | 0.0 | 0.0 | 0.03 | 0.33 | 0.03 | 93 | 1007.7 |
| 20260509050504 | 51 | 0 | 0.0 | 0.0 | 0.03 | 0.33 | 0.03 | 93 | 1007.7 |
| 20260509045504 | 51 | 0 | 0.0 | 0.0 | 0.01 | 0.31 | 0.01 | 93 | 1007.7 |
| 20260509045004 | 51 | 0 | 0.0 | 0.0 | 0.01 | 0.31 | 0.01 | 93 | 1007.8 |
| 20260509044504 | 51 | 0 | 0.0 | 0.0 | 0.00 | 0.30 | 0.00 | 93 | 1007.8 |
| 20260509044004 | 51 | 0 | 0.0 | 0.0 | 0.00 | 0.30 | 0.00 | 93 | 1007.8 |
| 20260509043503 | 51 | 142 | 0.0 | 1.0 | 0.01 | 0.30 | 0.00 | 93 | 1007.7 |
| 20260509043004 | 51 | 143 | 0.0 | 3.0 | 0.01 | 0.30 | 0.00 | 93 | 1007.7 |
| 20260509042504 | 51 | 143 | 0.0 | 3.0 | 0.01 | 0.30 | 0.00 | 93 | 1007.8 |
| 20260509041004 | 51 | 0 | 0.0 | 0.0 | 0.02 | 0.30 | 0.00 | 93 | 1008.2 |
| 20260509040504 | 51 | 0 | 0.0 | 0.0 | 0.02 | 0.30 | 0.00 | 93 | 1008.2 |
| 20260509040008 | 51 | 0 | 0.0 | 0.0 | 0.02 | 0.30 | 0.00 | 93 | 1008.2 |
| 20260509035503 | 51 | 0 | 0.0 | 0.0 | 0.02 | 0.30 | 0.30 | 92 | 1008.3 |
| 20260509035005 | 51 | 0 | 0.0 | 0.0 | 0.03 | 0.30 | 0.30 | 92 | 1008.3 |
| 20260509034504 | 51 | 0 | 0.0 | 0.0 | 0.03 | 0.30 | 0.30 | 92 | 1008.4 |
| 20260509032005 | 51 | 176 | 0.0 | 1.0 | 0.02 | 0.28 | 0.28 | 92 | 1008.9 |
| 20260509031503 | 51 | 176 | 0.0 | 1.0 | 0.03 | 0.28 | 0.28 | 92 | 1008.8 |
| 20260509031004 | 51 | 176 | 0.0 | 2.0 | 0.03 | 0.28 | 0.28 | 92 | 1008.8 |
| 20260509030504 | 51 | 176 | 0.0 | 2.0 | 0.03 | 0.28 | 0.28 | 92 | 1008.9 |
| 20260509030005 | 51 | 176 | 0.0 | 3.0 | 0.04 | 0.28 | 0.28 | 92 | 1008.8 |
| 20260509025503 | 51 | 176 | 1.0 | 3.0 | 0.04 | 0.28 | 0.28 | 92 | 1008.9 |
| 20260509025005 | 51 | 175 | 1.0 | 3.0 | 0.03 | 0.27 | 0.27 | 92 | 1009.1 |
| 20260509024004 | 51 | 0 | 0.0 | 0.0 | 0.03 | 0.27 | 0.27 | 92 | 1008.9 |
| 20260509023504 | 51 | 0 | 0.0 | 0.0 | 0.03 | 0.26 | 0.26 | 92 | 1008.9 |
| 20260509023004 | 51 | 0 | 0.0 | 0.0 | 0.03 | 0.26 | 0.26 | 92 | 1008.9 |
| 20260509022503 | 51 | 0 | 0.0 | 0.0 | 0.03 | 0.26 | 0.26 | 92 | 1008.8 |
| 20260509021503 | 51 | 0 | 0.0 | 0.0 | 0.03 | 0.25 | 0.25 | 92 | 1008.9 |
| 20260509021005 | 51 | 151 | 0.0 | 2.0 | 0.03 | 0.25 | 0.25 | 91 | 1009.0 |
| 20260509020504 | 51 | 151 | 0.0 | 2.0 | 0.04 | 0.25 | 0.25 | 91 | 1009.0 |
| 20260509020004 | 51 | 151 | 1.0 | 3.0 | 0.03 | 0.24 | 0.24 | 91 | 1009.0 |
| 20260509015504 | 51 | 151 | 1.0 | 3.0 | 0.04 | 0.24 | 0.24 | 91 | 1009.0 |
| 20260509014503 | 51 | 155 | 0.0 | 3.0 | 0.04 | 0.24 | 0.24 | 91 | 1009.0 |
| 20260509014005 | 51 | 0 | 0.0 | 0.0 | 0.05 | 0.24 | 0.24 | 91 | 1009.1 |
| 20260509013504 | 51 | 0 | 0.0 | 0.0 | 0.04 | 0.23 | 0.23 | 91 | 1009.0 |
| 20260509013004 | 51 | 0 | 0.0 | 0.0 | 0.05 | 0.23 | 0.23 | 91 | 1009.0 |
| 20260509012504 | 51 | 0 | 0.0 | 0.0 | 0.05 | 0.23 | 0.23 | 91 | 1009.0 |
| 20260509012004 | 51 | 0 | 0.0 | 0.0 | 0.04 | 0.22 | 0.22 | 91 | 1009.0 |
| 20260509011503 | 51 | 0 | 0.0 | 0.0 | 0.05 | 0.22 | 0.22 | 91 | 1008.9 |
| 20260509011005 | 51 | 0 | 0.0 | 0.0 | 0.04 | 0.21 | 0.21 | 91 | 1009.0 |
| 20260509010503 | 51 | 0 | 0.0 | 0.0 | 0.05 | 0.21 | 0.21 | 91 | 1008.9 |
| 20260509010005 | 51 | 0 | 0.0 | 0.0 | 0.05 | 0.21 | 0.21 | 91 | 1008.8 |
| 20260509005504 | 51 | 0 | 0.0 | 0.0 | 0.04 | 0.20 | 0.20 | 90 | 1008.8 |
| 20260509005004 | 51 | 233 | 0.0 | 2.0 | 0.05 | 0.20 | 0.20 | 90 | 1008.8 |
| 20260509004504 | 51 | 234 | 0.0 | 2.0 | 0.06 | 0.20 | 0.20 | 90 | 1008.8 |
| 20260509004004 | 51 | 233 | 0.0 | 2.0 | 0.05 | 0.19 | 0.19 | 90 | 1008.8 |
| 20260509003504 | 51 | 0 | 0.0 | 0.0 | 0.05 | 0.19 | 0.19 | 90 | 1008.9 |
| 20260509003004 | 51 | 233 | 0.0 | 2.0 | 0.04 | 0.18 | 0.18 | 90 | 1008.8 |
| 20260509002504 | 51 | 234 | 0.0 | 3.0 | 0.04 | 0.18 | 0.18 | 90 | 1008.7 |
| 20260509002004 | 51 | 235 | 1.0 | 3.0 | 0.03 | 0.17 | 0.17 | 90 | 1008.9 |
| 20260509001005 | 51 | 236 | 0.0 | 2.0 | 0.04 | 0.17 | 0.17 | 90 | 1008.9 |
| 20260509000503 | 51 | 0 | 0.0 | 0.0 | 0.03 | 0.16 | 0.16 | 90 | 1008.9 |
| 20260509000004 | 51 | 0 | 0.0 | 0.0 | 0.03 | 0.16 | 0.16 | 90 | 1009.0 |
| 20260508235504 | 51 | 0 | 0.0 | 0.0 | 0.02 | 0.15 | 0.15 | 90 | 1009.0 |
| 20260508235005 | 51 | 236 | 0.0 | 3.0 | 0.02 | 0.15 | 0.15 | 89 | 1008.9 |
| 20260508234503 | 52 | 236 | 0.0 | 3.0 | 0.02 | 0.14 | 0.14 | 89 | 1008.8 |
| 20260508234005 | 52 | 0 | 0.0 | 0.0 | 0.02 | 0.14 | 0.14 | 89 | 1008.7 |
| 20260508233504 | 52 | 0 | 0.0 | 0.0 | 0.03 | 0.14 | 0.14 | 89 | 1008.6 |
| 20260508233004 | 52 | 0 | 0.0 | 0.0 | 0.03 | 0.14 | 0.14 | 89 | 1008.6 |
| 20260508232504 | 52 | 0 | 0.0 | 0.0 | 0.03 | 0.14 | 0.14 | 89 | 1008.4 |
| 20260508231504 | 52 | 0 | 0.0 | 0.0 | 0.02 | 0.13 | 0.13 | 89 | 1008.4 |
| 20260508231004 | 52 | 0 | 0.0 | 0.0 | 0.02 | 0.13 | 0.13 | 89 | 1008.3 |
| 20260508230503 | 52 | 0 | 0.0 | 0.0 | 0.02 | 0.13 | 0.13 | 89 | 1008.2 |
| 20260508230105 | 52 | 0 | 0.0 | 0.0 | 0.02 | 0.13 | 0.13 | 89 | 1008.2 |
| 20260508225508 | 52 | 0 | 0.0 | 0.0 | 0.02 | 0.13 | 0.13 | 89 | 1008.3 |
| 20260508225005 | 52 | 0 | 0.0 | 0.0 | 0.03 | 0.13 | 0.13 | 89 | 1008.5 |
| 20260508224504 | 52 | 0 | 0.0 | 0.0 | 0.02 | 0.12 | 0.12 | 89 | 1008.6 |
| 20260508224004 | 52 | 0 | 0.0 | 0.0 | 0.02 | 0.12 | 0.12 | 89 | 1008.7 |
| 20260508223004 | 52 | 0 | 0.0 | 0.0 | 0.01 | 0.11 | 0.11 | 88 | 1008.6 |
| 20260508222503 | 52 | 0 | 0.0 | 0.0 | 0.01 | 0.11 | 0.11 | 88 | 1008.5 |
| 20260508222005 | 52 | 0 | 0.0 | 0.0 | 0.01 | 0.11 | 0.11 | 88 | 1008.4 |
| 20260508221503 | 52 | 0 | 0.0 | 0.0 | 0.01 | 0.11 | 0.11 | 88 | 1008.5 |
| 20260508221005 | 52 | 0 | 0.0 | 0.0 | 0.01 | 0.11 | 0.11 | 88 | 1008.4 |
| 20260508220504 | 52 | 0 | 0.0 | 0.0 | 0.01 | 0.11 | 0.11 | 88 | 1008.3 |
| 20260508220004 | 52 | 164 | 0.0 | 2.0 | 0.01 | 0.11 | 0.11 | 87 | 1008.1 |
| 20260508215504 | 52 | 164 | 0.0 | 2.0 | 0.01 | 0.11 | 0.11 | 88 | 1007.9 |
| 20260508215004 | 52 | 164 | 0.0 | 2.0 | 0.00 | 0.10 | 0.10 | 87 | 1008.0 |
| 20260508214504 | 52 | 164 | 0.0 | 2.0 | 0.00 | 0.10 | 0.10 | 87 | 1008.1 |
| 20260508214004 | 52 | 0 | 0.0 | 0.0 | 0.01 | 0.10 | 0.10 | 87 | 1008.2 |
| 20260508213504 | 52 | 0 | 0.0 | 0.0 | 0.02 | 0.10 | 0.10 | 86 | 1008.3 |
| 20260508212504 | 52 | 0 | 0.0 | 0.0 | 0.02 | 0.10 | 0.10 | 86 | 1008.4 |
| 20260508212004 | 52 | 0 | 0.0 | 0.0 | 0.03 | 0.10 | 0.10 | 85 | 1008.7 |
| 20260508211503 | 52 | 0 | 0.0 | 0.0 | 0.03 | 0.10 | 0.10 | 85 | 1008.7 |
| 20260508211005 | 52 | 0 | 0.0 | 0.0 | 0.04 | 0.10 | 0.10 | 85 | 1008.6 |
| 20260508210005 | 53 | 164 | 0.0 | 2.0 | 0.04 | 0.10 | 0.10 | 84 | 1008.8 |
| 20260508205504 | 53 | 163 | 1.0 | 4.0 | 0.04 | 0.10 | 0.10 | 83 | 1008.8 |
| 20260508205005 | 53 | 154 | 1.0 | 4.0 | 0.04 | 0.10 | 0.10 | 83 | 1008.9 |
| 20260508204504 | 53 | 206 | 1.0 | 3.0 | 0.04 | 0.10 | 0.10 | 83 | 1009.1 |
| 20260508204004 | 53 | 235 | 2.0 | 3.0 | 0.03 | 0.09 | 0.09 | 82 | 1009.4 |
| 20260508203504 | 53 | 250 | 2.0 | 5.0 | 0.02 | 0.08 | 0.08 | 82 | 1009.3 |
| 20260508203004 | 53 | 251 | 2.0 | 5.0 | 0.02 | 0.08 | 0.08 | 81 | 1009.3 |
| 20260508202504 | 54 | 232 | 2.0 | 5.0 | 0.02 | 0.08 | 0.08 | 81 | 1009.6 |
| 20260508202004 | 54 | 232 | 3.0 | 9.0 | 0.01 | 0.07 | 0.07 | 80 | 1009.6 |
| 20260508201504 | 54 | 233 | 3.0 | 9.0 | 0.01 | 0.07 | 0.07 | 79 | 1009.6 |
| 20260508200503 | 54 | 231 | 3.0 | 12.0 | 0.00 | 0.06 | 0.06 | 77 | 1009.7 |
| 20260508200005 | 55 | 223 | 4.0 | 12.0 | 0.00 | 0.06 | 0.06 | 76 | 1009.8 |
| 20260508195504 | 55 | 227 | 4.0 | 10.0 | 0.00 | 0.06 | 0.06 | 75 | 1009.7 |
| 20260508194504 | 56 | 228 | 3.0 | 9.0 | 0.00 | 0.06 | 0.06 | 75 | 1009.8 |